Location: Courcelles
(49.2596°N, 1.7419°E)
Time: 01:53:06
(UTC+00:00)

Cosmos 1400 Rocket - Pass Details

Date: 17 November 2025
Orbit: 477 x 514 km, 81.1° (Epoch: 04 December)

Event Time Altitude Azimuth Distance (km) Brightness Sun altitude
Rises 18:59:16 0° 213° (SSW) 2,620 6.7 -27.6°
Reaches altitude 10° 19:01:32 10° 222° (SW) 1,735 5.8 -27.9°
Enters shadow 19:04:32 32° 271° (W) 896 4.4 -28.4°
